Regional Weather Roundup
Issued by NWS

Home | Current Version | Previous Version | Graphics & Text | Print | Product List | Glossary On
Versions: 1 2 3 4 5 6 7 8 9 10 11 12 13 14 15 16 17 18 19 20 21 22 23 24 25 26 27 28 29 30 31 32 33 34 35 36 37 38 39 40 41 42 43 44 45 46 47 48 49 50
000
ASUS45 KTFX 191610
RWRMT
MONTANA REGIONAL WEATHER ROUNDUP
NATIONAL WEATHER SERVICE GREAT FALLS MT
900 AM MST SUN NOV 19 2017

NOTE: "FAIR" INDICATES FEW OR NO CLOUDS BELOW 12000 FEET WITH NO
SIGNIFICANT WEATHER AND/OR OBSTRUCTIONS TO VISIBILITY.

MTZ001>007-043-191700-
WEST OF THE DIVIDE

CITY           SKY/WX    TMP DP  RH WIND       PRES   REMARKS
KALISPELL      CLOUDY    28  26  92 NE5       30.01F
MISSOULA       FAIR      26  23  88 CALM      30.07F
BUTTE          FAIR      14   8  77 CALM      30.03S
MULLAN PASS    FAIR      23  17  78 S8        29.96R WCI  14
ANACONDA         N/A     32   9  37 S13       30.01S WCI  22
DEER LODGE       N/A     21  12  68 CALM      30.03F
EUREKA           N/A     34  23  64 MISG      29.99F
HAMILTON         N/A     27  19  74 CALM      30.06F
LIBBY            N/A     21  21 100 CALM      30.02F
RONAN            N/A     30  25  82 CALM      30.06F
$$

MTZ008-052>055-191700-
SOUTHWEST MONTANA

CITY           SKY/WX    TMP DP  RH WIND       PRES   REMARKS
BOZEMAN        FAIR      21  16  81 S3        30.04F
DILLON         FAIR      29  17  61 S8        30.07S WCI  21
W YELLOWSTONE  FAIR      16  14  93 CALM      30.20R
ENNIS          CLOUDY    32  12  43 S24G31    30.12S WCI  19
$$

MTZ009-010-012-014-046-048-049-054-191700-
EAST SLOPES AND CENTRAL MONTANA

CITY           SKY/WX    TMP DP  RH WIND       PRES   REMARKS
CUT BANK       FAIR      37  17  44 SW18G32   29.76S WCI  27
GREAT FALLS    FAIR      41  10  28 SW35G46   29.84F
MALMSTROM AFB  FAIR      40  13  33 SW21G26   29.86S
HELENA         FAIR      26  18  71 CALM      30.01F
BOWMANS CRNR   FAIR      35  12  39 SW30G36   29.84F WCI  21
CHOTEAU          N/A     37  14  38 S10       29.82F WCI  30
FAIRFIELD      FAIR      36  13  39 S20G25    29.83F WCI  25
POWER          PTSUNNY   37  11  34 SW30G36   29.82F WCI  25
RAYNESFORD     CLOUDY    45   7  21 SW18G31   29.84F
ULM            PTSUNNY   41  10  28 SW21G31   29.90S
$$

MTZ011-013-016-021-045-047-050-051-191700-
NORTH CENTRAL MONTANA

CITY           SKY/WX    TMP DP  RH WIND       PRES   REMARKS
HAVRE          FAIR      39  21  48 SW16      29.77F WCI  30
LEWISTOWN      FAIR      44  13  28 SW20      29.84F
N BAR RANCH    FAIR      34  16  47 W6        29.87S WCI  29
CHINOOK          N/A     27  21  80 CALM      29.78F
DENTON         CLOUDY    44  13  28 MISG      29.79F
GEYSER         PTSUNNY   45   8  22 W17       29.81F
GRASS RANGE    PTSUNNY   31  20  61 SW6       29.80F WCI  26
STANFORD       CLOUDY    44   8  22 S7        29.83F
WINIFRED       PTSUNNY   41  15  35 SW13      29.80F
$$

MTZ017>020-022>027-061-062-191700-
NORTHEAST MONTANA

CITY           SKY/WX    TMP DP  RH WIND       PRES   REMARKS
GLASGOW        FAIR      28  23  81 S5        29.83F
GLENDIVE       FAIR      28  22  78 S6        29.89F WCI  22
JORDAN           N/A     28  22  78 CALM      29.87S
SIDNEY         FAIR      26  24  92 S8        29.87F WCI  18
WOLF POINT     FAIR      28  22  78 SW6       29.86F WCI  22
MALTA          SUNNY     25  23  93 CALM      29.81F
PLENTYWOOD       N/A     27  19  74 CALM      29.81S
POPLAR           N/A     25  19  80 CALM      29.86F
SCOBEY           N/A     24  13  63 CALM      29.80F
$$

MTZ028>42-056>058-191700-
SOUTHCENTRAL AND SOUTHEAST MONTANA

CITY           SKY/WX    TMP DP  RH WIND       PRES   REMARKS
BAKER          FAIR      32  22  66 CALM      29.92F
BILLINGS       PTSUNNY   41  15  35 W21       29.93S
LIVINGSTON     FAIR      37  16  42 SW48G66   29.90F WCI  22
MILES CITY     FAIR      27  23  85 SE9       29.92S WCI  18
BIG TIMBER     SUNNY     37  14  38 W33       29.96S WCI  24
FORSYTH          N/A     32  25  74 CALM      29.91S
HARLOWTON      CLOUDY    36  18  48 W30G41    29.88F WCI  23
LAUREL           N/A     39  16  38 W9        29.96R
$$

REGIONAL REPORTS...DAKOTAS

CITY           SKY/WX    TMP DP  RH WIND       PRES   REMARKS
WILLISTON      FAIR      26  22  84 S5        29.85F
MINOT          FAIR      35  22  58 SW8G18    29.81S WCI  29
DICKINSON      FAIR      35  21  56 W12       29.86F WCI  27
BEACH          FAIR      32  21  64 SW15G21   29.91F WCI  22
CROSBY         FAIR      25  21  86 SW9       29.81F WCI  15
TIOGA          FAIR      28  25  86 W7        29.83F WCI  21
BISMARCK       FAIR      36  26  67 W3        29.90F
GRAND FORKS    FAIR      20  16  84 S7        29.88F WCI  11
FARGO          FAIR      25  18  74 S12       29.92F WCI  14
BUFFALO SD       N/A     35  23  61 W6        29.87S WCI  30
RAPID CITY     FAIR      38  24  57 CALM      29.97F
$$

REGIONAL REPORTS...WYOMING/IDAHO/WASHINGTON

CITY           SKY/WX    TMP DP  RH WIND       PRES   REMARKS
GILLETTE       FAIR      41  16  36 SW14      29.96S
SHERIDAN       FAIR      28  24  85 NE6       29.94S WCI  22
BUFFALO WY     FAIR      36  12  37 W3        29.95F
CODY           FAIR      30  17  58 VRB3      30.02S
YELLOWSTONE LA   N/A     14  12  92 CALM      30.20R
IDAHO FALLS    FAIR      25  21  85 N6        30.26R WCI  18
SALMON         FAIR      22  18  85 CALM      30.20F
BOISE          FAIR      31  23  72 NE3       30.22R
SPOKANE        CLOUDY    34  26  72 SE14      30.01S WCI  25
$$

REGIONAL REPORTS...ALBERTA

CITY           SKY/WX    TMP DP  RH WIND       PRES   REMARKS
EDMONTON       CLOUDY    21  14  73 E8        29.47F WCI  12
CALGARY        MOCLDY    39  19  45 NW5       29.54F
LETHBRIDGE     MOCLDY    36  19  51 VRB2      29.69S
MEDICINE HAT   CLOUDY    36  23  60 SW14G20   29.65F WCI  27
$$

REGIONAL REPORTS...SASKATCHEWAN

CITY           SKY/WX    TMP DP  RH WIND       PRES   REMARKS
SWIFT CURRENT  SUNNY     28  18  64 SW15      29.67F WCI  17
REGINA         CLOUDY    10   9  92 SW7       29.76F WCI   0
SASKATOON      MOCLDY     7   3  85 E8        29.75F WCI  -6
$$



USA.gov is the U.S. government's official web portal to all federal, state and local government web resources and services.